﻿_id,datum,uhrzeit_start,uhrzeit_ende,zaehlstelle,richtung_1,richtung_2,gesamt
1,2022.10.01,00:00,00:15,Arnulf,5,4,9
2,2022.10.01,00:15,00:30,Arnulf,7,2,9
3,2022.10.01,00:30,00:45,Arnulf,5,2,7
4,2022.10.01,00:45,01:00,Arnulf,2,1,3
5,2022.10.01,01:00,01:15,Arnulf,2,1,3
6,2022.10.01,01:15,01:30,Arnulf,2,0,2
7,2022.10.01,01:30,01:45,Arnulf,2,1,3
8,2022.10.01,01:45,02:00,Arnulf,0,0,0
9,2022.10.01,02:00,02:15,Arnulf,2,1,3
10,2022.10.01,02:15,02:30,Arnulf,1,0,1
11,2022.10.01,02:30,02:45,Arnulf,2,0,2
12,2022.10.01,02:45,03:00,Arnulf,1,1,2
13,2022.10.01,03:00,03:15,Arnulf,2,0,2
14,2022.10.01,03:15,03:30,Arnulf,0,1,1
15,2022.10.01,03:30,03:45,Arnulf,2,0,2
16,2022.10.01,03:45,04:00,Arnulf,2,0,2
17,2022.10.01,04:00,04:15,Arnulf,1,0,1
18,2022.10.01,04:15,04:30,Arnulf,0,0,0
19,2022.10.01,04:30,04:45,Arnulf,2,0,2
20,2022.10.01,04:45,05:00,Arnulf,1,1,2
21,2022.10.01,05:00,05:15,Arnulf,1,0,1
22,2022.10.01,05:15,05:30,Arnulf,3,0,3
23,2022.10.01,05:30,05:45,Arnulf,2,0,2
24,2022.10.01,05:45,06:00,Arnulf,6,1,7
25,2022.10.01,06:00,06:15,Arnulf,0,0,0
26,2022.10.01,06:15,06:30,Arnulf,3,0,3
27,2022.10.01,06:30,06:45,Arnulf,5,0,5
28,2022.10.01,06:45,07:00,Arnulf,5,1,6
29,2022.10.01,07:00,07:15,Arnulf,4,0,4
30,2022.10.01,07:15,07:30,Arnulf,4,0,4
31,2022.10.01,07:30,07:45,Arnulf,2,1,3
32,2022.10.01,07:45,08:00,Arnulf,6,0,6
33,2022.10.01,08:00,08:15,Arnulf,6,0,6
34,2022.10.01,08:15,08:30,Arnulf,7,0,7
35,2022.10.01,08:30,08:45,Arnulf,9,1,10
36,2022.10.01,08:45,09:00,Arnulf,13,0,13
37,2022.10.01,09:00,09:15,Arnulf,8,3,11
38,2022.10.01,09:15,09:30,Arnulf,12,1,13
39,2022.10.01,09:30,09:45,Arnulf,7,0,7
40,2022.10.01,09:45,10:00,Arnulf,24,0,24
41,2022.10.01,10:00,10:15,Arnulf,15,0,15
42,2022.10.01,10:15,10:30,Arnulf,10,0,10
43,2022.10.01,10:30,10:45,Arnulf,10,1,11
44,2022.10.01,10:45,11:00,Arnulf,18,0,18
45,2022.10.01,11:00,11:15,Arnulf,13,1,14
46,2022.10.01,11:15,11:30,Arnulf,18,0,18
47,2022.10.01,11:30,11:45,Arnulf,20,0,20
48,2022.10.01,11:45,12:00,Arnulf,20,0,20
49,2022.10.01,12:00,12:15,Arnulf,9,1,10
50,2022.10.01,12:15,12:30,Arnulf,8,2,10
51,2022.10.01,12:30,12:45,Arnulf,6,4,10
52,2022.10.01,12:45,13:00,Arnulf,10,1,11
53,2022.10.01,13:00,13:15,Arnulf,2,1,3
54,2022.10.01,13:15,13:30,Arnulf,8,0,8
55,2022.10.01,13:30,13:45,Arnulf,5,0,5
56,2022.10.01,13:45,14:00,Arnulf,7,0,7
57,2022.10.01,14:00,14:15,Arnulf,8,2,10
58,2022.10.01,14:15,14:30,Arnulf,3,0,3
59,2022.10.01,14:30,14:45,Arnulf,8,1,9
60,2022.10.01,14:45,15:00,Arnulf,8,2,10
61,2022.10.01,15:00,15:15,Arnulf,4,0,4
62,2022.10.01,15:15,15:30,Arnulf,4,1,5
63,2022.10.01,15:30,15:45,Arnulf,6,2,8
64,2022.10.01,15:45,16:00,Arnulf,3,0,3
65,2022.10.01,16:00,16:15,Arnulf,4,0,4
66,2022.10.01,16:15,16:30,Arnulf,8,0,8
67,2022.10.01,16:30,16:45,Arnulf,5,2,7
68,2022.10.01,16:45,17:00,Arnulf,11,0,11
69,2022.10.01,17:00,17:15,Arnulf,10,1,11
70,2022.10.01,17:15,17:30,Arnulf,10,2,12
71,2022.10.01,17:30,17:45,Arnulf,9,0,9
72,2022.10.01,17:45,18:00,Arnulf,14,0,14
73,2022.10.01,18:00,18:15,Arnulf,2,0,2
74,2022.10.01,18:15,18:30,Arnulf,5,1,6
75,2022.10.01,18:30,18:45,Arnulf,9,1,10
76,2022.10.01,18:45,19:00,Arnulf,11,0,11
77,2022.10.01,19:00,19:15,Arnulf,7,0,7
78,2022.10.01,19:15,19:30,Arnulf,9,2,11
79,2022.10.01,19:30,19:45,Arnulf,8,0,8
80,2022.10.01,19:45,20:00,Arnulf,4,3,7
81,2022.10.01,20:00,20:15,Arnulf,1,0,1
82,2022.10.01,20:15,20:30,Arnulf,8,2,10
83,2022.10.01,20:30,20:45,Arnulf,5,0,5
84,2022.10.01,20:45,21:00,Arnulf,5,1,6
85,2022.10.01,21:00,21:15,Arnulf,2,0,2
86,2022.10.01,21:15,21:30,Arnulf,4,1,5
87,2022.10.01,21:30,21:45,Arnulf,4,0,4
88,2022.10.01,21:45,22:00,Arnulf,3,1,4
89,2022.10.01,22:00,22:15,Arnulf,1,0,1
90,2022.10.01,22:15,22:30,Arnulf,3,0,3
91,2022.10.01,22:30,22:45,Arnulf,2,0,2
92,2022.10.01,22:45,23:00,Arnulf,7,1,8
93,2022.10.01,23:00,23:15,Arnulf,3,1,4
94,2022.10.01,23:15,23:30,Arnulf,7,2,9
95,2022.10.01,23:30,23:45,Arnulf,3,0,3
96,2022.10.01,23:45,00:00,Arnulf,3,0,3
97,2022.10.02,00:00,00:15,Arnulf,1,0,1
98,2022.10.02,00:15,00:30,Arnulf,1,1,2
99,2022.10.02,00:30,00:45,Arnulf,1,1,2
100,2022.10.02,00:45,01:00,Arnulf,2,0,2
101,2022.10.02,01:00,01:15,Arnulf,1,0,1
102,2022.10.02,01:15,01:30,Arnulf,3,0,3
103,2022.10.02,01:30,01:45,Arnulf,1,0,1
104,2022.10.02,01:45,02:00,Arnulf,0,1,1
105,2022.10.02,02:00,02:15,Arnulf,1,0,1
106,2022.10.02,02:15,02:30,Arnulf,0,0,0
107,2022.10.02,02:30,02:45,Arnulf,0,0,0
108,2022.10.02,02:45,03:00,Arnulf,0,0,0
109,2022.10.02,03:00,03:15,Arnulf,0,1,1
110,2022.10.02,03:15,03:30,Arnulf,0,1,1
111,2022.10.02,03:30,03:45,Arnulf,0,0,0
112,2022.10.02,03:45,04:00,Arnulf,0,0,0
113,2022.10.02,04:00,04:15,Arnulf,1,0,1
114,2022.10.02,04:15,04:30,Arnulf,0,0,0
115,2022.10.02,04:30,04:45,Arnulf,2,1,3
116,2022.10.02,04:45,05:00,Arnulf,0,0,0
117,2022.10.02,05:00,05:15,Arnulf,0,0,0
118,2022.10.02,05:15,05:30,Arnulf,0,1,1
119,2022.10.02,05:30,05:45,Arnulf,0,0,0
120,2022.10.02,05:45,06:00,Arnulf,0,1,1
121,2022.10.02,06:00,06:15,Arnulf,4,0,4
122,2022.10.02,06:15,06:30,Arnulf,2,0,2
123,2022.10.02,06:30,06:45,Arnulf,2,3,5
124,2022.10.02,06:45,07:00,Arnulf,1,0,1
125,2022.10.02,07:00,07:15,Arnulf,1,0,1
126,2022.10.02,07:15,07:30,Arnulf,2,0,2
127,2022.10.02,07:30,07:45,Arnulf,2,0,2
128,2022.10.02,07:45,08:00,Arnulf,5,1,6
129,2022.10.02,08:00,08:15,Arnulf,1,0,1
130,2022.10.02,08:15,08:30,Arnulf,2,0,2
131,2022.10.02,08:30,08:45,Arnulf,0,0,0
132,2022.10.02,08:45,09:00,Arnulf,3,0,3
133,2022.10.02,09:00,09:15,Arnulf,3,1,4
134,2022.10.02,09:15,09:30,Arnulf,3,0,3
135,2022.10.02,09:30,09:45,Arnulf,11,2,13
136,2022.10.02,09:45,10:00,Arnulf,7,1,8
137,2022.10.02,10:00,10:15,Arnulf,6,0,6
138,2022.10.02,10:15,10:30,Arnulf,4,1,5
139,2022.10.02,10:30,10:45,Arnulf,5,0,5
140,2022.10.02,10:45,11:00,Arnulf,6,1,7
141,2022.10.02,11:00,11:15,Arnulf,8,1,9
142,2022.10.02,11:15,11:30,Arnulf,8,0,8
143,2022.10.02,11:30,11:45,Arnulf,20,1,21
144,2022.10.02,11:45,12:00,Arnulf,8,1,9
145,2022.10.02,12:00,12:15,Arnulf,4,2,6
146,2022.10.02,12:15,12:30,Arnulf,6,0,6
147,2022.10.02,12:30,12:45,Arnulf,8,0,8
148,2022.10.02,12:45,13:00,Arnulf,7,0,7
149,2022.10.02,13:00,13:15,Arnulf,10,0,10
150,2022.10.02,13:15,13:30,Arnulf,14,1,15
151,2022.10.02,13:30,13:45,Arnulf,10,1,11
152,2022.10.02,13:45,14:00,Arnulf,20,0,20
153,2022.10.02,14:00,14:15,Arnulf,17,0,17
154,2022.10.02,14:15,14:30,Arnulf,17,0,17
155,2022.10.02,14:30,14:45,Arnulf,11,0,11
156,2022.10.02,14:45,15:00,Arnulf,20,3,23
157,2022.10.02,15:00,15:15,Arnulf,13,2,15
158,2022.10.02,15:15,15:30,Arnulf,14,0,14
159,2022.10.02,15:30,15:45,Arnulf,1,1,2
160,2022.10.02,15:45,16:00,Arnulf,4,0,4
161,2022.10.02,16:00,16:15,Arnulf,0,0,0
162,2022.10.02,16:15,16:30,Arnulf,7,1,8
163,2022.10.02,16:30,16:45,Arnulf,4,0,4
164,2022.10.02,16:45,17:00,Arnulf,6,2,8
165,2022.10.02,17:00,17:15,Arnulf,5,1,6
166,2022.10.02,17:15,17:30,Arnulf,4,0,4
167,2022.10.02,17:30,17:45,Arnulf,5,0,5
168,2022.10.02,17:45,18:00,Arnulf,3,0,3
169,2022.10.02,18:00,18:15,Arnulf,10,0,10
170,2022.10.02,18:15,18:30,Arnulf,2,0,2
171,2022.10.02,18:30,18:45,Arnulf,3,0,3
172,2022.10.02,18:45,19:00,Arnulf,5,3,8
173,2022.10.02,19:00,19:15,Arnulf,7,4,11
174,2022.10.02,19:15,19:30,Arnulf,5,1,6
175,2022.10.02,19:30,19:45,Arnulf,3,0,3
176,2022.10.02,19:45,20:00,Arnulf,6,0,6
177,2022.10.02,20:00,20:15,Arnulf,0,0,0
178,2022.10.02,20:15,20:30,Arnulf,1,0,1
179,2022.10.02,20:30,20:45,Arnulf,3,0,3
180,2022.10.02,20:45,21:00,Arnulf,2,1,3
181,2022.10.02,21:00,21:15,Arnulf,1,0,1
182,2022.10.02,21:15,21:30,Arnulf,1,0,1
183,2022.10.02,21:30,21:45,Arnulf,4,0,4
184,2022.10.02,21:45,22:00,Arnulf,2,0,2
185,2022.10.02,22:00,22:15,Arnulf,1,0,1
186,2022.10.02,22:15,22:30,Arnulf,0,1,1
187,2022.10.02,22:30,22:45,Arnulf,1,1,2
188,2022.10.02,22:45,23:00,Arnulf,1,0,1
189,2022.10.02,23:00,23:15,Arnulf,1,0,1
190,2022.10.02,23:15,23:30,Arnulf,4,1,5
191,2022.10.02,23:30,23:45,Arnulf,3,0,3
192,2022.10.02,23:45,00:00,Arnulf,2,0,2
193,2022.10.03,00:00,00:15,Arnulf,1,0,1
194,2022.10.03,00:15,00:30,Arnulf,1,1,2
195,2022.10.03,00:30,00:45,Arnulf,3,0,3
196,2022.10.03,00:45,01:00,Arnulf,1,0,1
197,2022.10.03,01:00,01:15,Arnulf,1,0,1
198,2022.10.03,01:15,01:30,Arnulf,0,1,1
199,2022.10.03,01:30,01:45,Arnulf,5,0,5
200,2022.10.03,01:45,02:00,Arnulf,0,0,0
201,2022.10.03,02:00,02:15,Arnulf,2,0,2
202,2022.10.03,02:15,02:30,Arnulf,1,0,1
203,2022.10.03,02:30,02:45,Arnulf,0,0,0
204,2022.10.03,02:45,03:00,Arnulf,0,1,1
205,2022.10.03,03:00,03:15,Arnulf,0,0,0
206,2022.10.03,03:15,03:30,Arnulf,0,0,0
207,2022.10.03,03:30,03:45,Arnulf,0,0,0
208,2022.10.03,03:45,04:00,Arnulf,0,0,0
209,2022.10.03,04:00,04:15,Arnulf,0,0,0
210,2022.10.03,04:15,04:30,Arnulf,0,0,0
211,2022.10.03,04:30,04:45,Arnulf,0,0,0
212,2022.10.03,04:45,05:00,Arnulf,1,0,1
213,2022.10.03,05:00,05:15,Arnulf,0,0,0
214,2022.10.03,05:15,05:30,Arnulf,3,0,3
215,2022.10.03,05:30,05:45,Arnulf,1,0,1
216,2022.10.03,05:45,06:00,Arnulf,2,0,2
217,2022.10.03,06:00,06:15,Arnulf,2,0,2
218,2022.10.03,06:15,06:30,Arnulf,1,0,1
219,2022.10.03,06:30,06:45,Arnulf,1,0,1
220,2022.10.03,06:45,07:00,Arnulf,6,0,6
221,2022.10.03,07:00,07:15,Arnulf,1,0,1
222,2022.10.03,07:15,07:30,Arnulf,1,0,1
223,2022.10.03,07:30,07:45,Arnulf,1,0,1
224,2022.10.03,07:45,08:00,Arnulf,3,0,3
225,2022.10.03,08:00,08:15,Arnulf,5,1,6
226,2022.10.03,08:15,08:30,Arnulf,6,1,7
227,2022.10.03,08:30,08:45,Arnulf,4,0,4
228,2022.10.03,08:45,09:00,Arnulf,3,0,3
229,2022.10.03,09:00,09:15,Arnulf,5,0,5
230,2022.10.03,09:15,09:30,Arnulf,4,0,4
231,2022.10.03,09:30,09:45,Arnulf,5,0,5
232,2022.10.03,09:45,10:00,Arnulf,4,0,4
233,2022.10.03,10:00,10:15,Arnulf,6,0,6
234,2022.10.03,10:15,10:30,Arnulf,10,0,10
235,2022.10.03,10:30,10:45,Arnulf,6,0,6
236,2022.10.03,10:45,11:00,Arnulf,6,1,7
237,2022.10.03,11:00,11:15,Arnulf,6,0,6
238,2022.10.03,11:15,11:30,Arnulf,6,0,6
239,2022.10.03,11:30,11:45,Arnulf,8,3,11
240,2022.10.03,11:45,12:00,Arnulf,6,0,6
241,2022.10.03,12:00,12:15,Arnulf,13,0,13
242,2022.10.03,12:15,12:30,Arnulf,13,0,13
243,2022.10.03,12:30,12:45,Arnulf,14,0,14
244,2022.10.03,12:45,13:00,Arnulf,16,3,19
245,2022.10.03,13:00,13:15,Arnulf,12,2,14
246,2022.10.03,13:15,13:30,Arnulf,15,1,16
247,2022.10.03,13:30,13:45,Arnulf,16,0,16
248,2022.10.03,13:45,14:00,Arnulf,18,0,18
249,2022.10.03,14:00,14:15,Arnulf,23,0,23
250,2022.10.03,14:15,14:30,Arnulf,22,1,23
251,2022.10.03,14:30,14:45,Arnulf,24,3,27
252,2022.10.03,14:45,15:00,Arnulf,20,2,22
253,2022.10.03,15:00,15:15,Arnulf,22,0,22
254,2022.10.03,15:15,15:30,Arnulf,17,2,19
255,2022.10.03,15:30,15:45,Arnulf,24,2,26
256,2022.10.03,15:45,16:00,Arnulf,32,0,32
257,2022.10.03,16:00,16:15,Arnulf,17,0,17
258,2022.10.03,16:15,16:30,Arnulf,20,3,23
259,2022.10.03,16:30,16:45,Arnulf,21,1,22
260,2022.10.03,16:45,17:00,Arnulf,18,0,18
261,2022.10.03,17:00,17:15,Arnulf,14,3,17
262,2022.10.03,17:15,17:30,Arnulf,19,2,21
263,2022.10.03,17:30,17:45,Arnulf,19,1,20
264,2022.10.03,17:45,18:00,Arnulf,14,0,14
265,2022.10.03,18:00,18:15,Arnulf,10,0,10
266,2022.10.03,18:15,18:30,Arnulf,20,0,20
267,2022.10.03,18:30,18:45,Arnulf,16,0,16
268,2022.10.03,18:45,19:00,Arnulf,11,1,12
269,2022.10.03,19:00,19:15,Arnulf,3,1,4
270,2022.10.03,19:15,19:30,Arnulf,10,1,11
271,2022.10.03,19:30,19:45,Arnulf,10,4,14
272,2022.10.03,19:45,20:00,Arnulf,7,0,7
273,2022.10.03,20:00,20:15,Arnulf,7,0,7
274,2022.10.03,20:15,20:30,Arnulf,2,1,3
275,2022.10.03,20:30,20:45,Arnulf,10,1,11
276,2022.10.03,20:45,21:00,Arnulf,4,0,4
277,2022.10.03,21:00,21:15,Arnulf,3,0,3
278,2022.10.03,21:15,21:30,Arnulf,8,0,8
279,2022.10.03,21:30,21:45,Arnulf,3,1,4
280,2022.10.03,21:45,22:00,Arnulf,8,0,8
281,2022.10.03,22:00,22:15,Arnulf,9,0,9
282,2022.10.03,22:15,22:30,Arnulf,4,0,4
283,2022.10.03,22:30,22:45,Arnulf,3,1,4
284,2022.10.03,22:45,23:00,Arnulf,5,1,6
285,2022.10.03,23:00,23:15,Arnulf,2,1,3
286,2022.10.03,23:15,23:30,Arnulf,4,0,4
287,2022.10.03,23:30,23:45,Arnulf,0,1,1
288,2022.10.03,23:45,00:00,Arnulf,2,0,2
289,2022.10.04,00:00,00:15,Arnulf,1,2,3
290,2022.10.04,00:15,00:30,Arnulf,2,0,2
291,2022.10.04,00:30,00:45,Arnulf,2,0,2
292,2022.10.04,00:45,01:00,Arnulf,0,0,0
293,2022.10.04,01:00,01:15,Arnulf,0,0,0
294,2022.10.04,01:15,01:30,Arnulf,1,0,1
295,2022.10.04,01:30,01:45,Arnulf,0,1,1
296,2022.10.04,01:45,02:00,Arnulf,0,0,0
297,2022.10.04,02:00,02:15,Arnulf,3,1,4
298,2022.10.04,02:15,02:30,Arnulf,0,0,0
299,2022.10.04,02:30,02:45,Arnulf,4,0,4
300,2022.10.04,02:45,03:00,Arnulf,1,0,1
301,2022.10.04,03:00,03:15,Arnulf,0,0,0
302,2022.10.04,03:15,03:30,Arnulf,0,0,0
303,2022.10.04,03:30,03:45,Arnulf,1,0,1
304,2022.10.04,03:45,04:00,Arnulf,0,0,0
305,2022.10.04,04:00,04:15,Arnulf,2,0,2
306,2022.10.04,04:15,04:30,Arnulf,0,0,0
307,2022.10.04,04:30,04:45,Arnulf,1,0,1
308,2022.10.04,04:45,05:00,Arnulf,0,1,1
309,2022.10.04,05:00,05:15,Arnulf,2,1,3
310,2022.10.04,05:15,05:30,Arnulf,3,0,3
311,2022.10.04,05:30,05:45,Arnulf,3,0,3
312,2022.10.04,05:45,06:00,Arnulf,4,0,4
313,2022.10.04,06:00,06:15,Arnulf,4,1,5
314,2022.10.04,06:15,06:30,Arnulf,6,4,10
315,2022.10.04,06:30,06:45,Arnulf,9,0,9
316,2022.10.04,06:45,07:00,Arnulf,13,0,13
317,2022.10.04,07:00,07:15,Arnulf,13,1,14
318,2022.10.04,07:15,07:30,Arnulf,23,0,23
319,2022.10.04,07:30,07:45,Arnulf,38,0,38
320,2022.10.04,07:45,08:00,Arnulf,38,3,41
321,2022.10.04,08:00,08:15,Arnulf,60,0,60
322,2022.10.04,08:15,08:30,Arnulf,58,2,60
323,2022.10.04,08:30,08:45,Arnulf,55,0,55
324,2022.10.04,08:45,09:00,Arnulf,53,0,53
325,2022.10.04,09:00,09:15,Arnulf,38,2,40
326,2022.10.04,09:15,09:30,Arnulf,34,0,34
327,2022.10.04,09:30,09:45,Arnulf,21,0,21
328,2022.10.04,09:45,10:00,Arnulf,22,1,23
329,2022.10.04,10:00,10:15,Arnulf,18,1,19
330,2022.10.04,10:15,10:30,Arnulf,13,0,13
331,2022.10.04,10:30,10:45,Arnulf,16,0,16
332,2022.10.04,10:45,11:00,Arnulf,13,2,15
333,2022.10.04,11:00,11:15,Arnulf,15,1,16
334,2022.10.04,11:15,11:30,Arnulf,20,0,20
335,2022.10.04,11:30,11:45,Arnulf,17,1,18
336,2022.10.04,11:45,12:00,Arnulf,20,0,20
337,2022.10.04,12:00,12:15,Arnulf,16,0,16
338,2022.10.04,12:15,12:30,Arnulf,16,0,16
339,2022.10.04,12:30,12:45,Arnulf,16,3,19
340,2022.10.04,12:45,13:00,Arnulf,23,1,24
341,2022.10.04,13:00,13:15,Arnulf,8,1,9
342,2022.10.04,13:15,13:30,Arnulf,24,1,25
343,2022.10.04,13:30,13:45,Arnulf,18,0,18
344,2022.10.04,13:45,14:00,Arnulf,17,1,18
345,2022.10.04,14:00,14:15,Arnulf,11,1,12
346,2022.10.04,14:15,14:30,Arnulf,18,4,22
347,2022.10.04,14:30,14:45,Arnulf,19,1,20
348,2022.10.04,14:45,15:00,Arnulf,21,1,22
349,2022.10.04,15:00,15:15,Arnulf,12,2,14
350,2022.10.04,15:15,15:30,Arnulf,22,3,25
351,2022.10.04,15:30,15:45,Arnulf,19,1,20
352,2022.10.04,15:45,16:00,Arnulf,16,0,16
353,2022.10.04,16:00,16:15,Arnulf,28,0,28
354,2022.10.04,16:15,16:30,Arnulf,22,0,22
355,2022.10.04,16:30,16:45,Arnulf,25,2,27
356,2022.10.04,16:45,17:00,Arnulf,17,0,17
357,2022.10.04,17:00,17:15,Arnulf,30,3,33
358,2022.10.04,17:15,17:30,Arnulf,44,3,47
359,2022.10.04,17:30,17:45,Arnulf,32,4,36
360,2022.10.04,17:45,18:00,Arnulf,38,4,42
361,2022.10.04,18:00,18:15,Arnulf,44,1,45
362,2022.10.04,18:15,18:30,Arnulf,35,2,37
363,2022.10.04,18:30,18:45,Arnulf,40,1,41
364,2022.10.04,18:45,19:00,Arnulf,28,0,28
365,2022.10.04,19:00,19:15,Arnulf,34,2,36
366,2022.10.04,19:15,19:30,Arnulf,26,1,27
367,2022.10.04,19:30,19:45,Arnulf,15,1,16
368,2022.10.04,19:45,20:00,Arnulf,20,2,22
369,2022.10.04,20:00,20:15,Arnulf,15,2,17
370,2022.10.04,20:15,20:30,Arnulf,8,1,9
371,2022.10.04,20:30,20:45,Arnulf,13,0,13
372,2022.10.04,20:45,21:00,Arnulf,8,0,8
373,2022.10.04,21:00,21:15,Arnulf,15,0,15
374,2022.10.04,21:15,21:30,Arnulf,4,0,4
375,2022.10.04,21:30,21:45,Arnulf,9,0,9
376,2022.10.04,21:45,22:00,Arnulf,8,0,8
377,2022.10.04,22:00,22:15,Arnulf,6,1,7
378,2022.10.04,22:15,22:30,Arnulf,3,1,4
379,2022.10.04,22:30,22:45,Arnulf,5,1,6
380,2022.10.04,22:45,23:00,Arnulf,5,1,6
381,2022.10.04,23:00,23:15,Arnulf,4,1,5
382,2022.10.04,23:15,23:30,Arnulf,7,0,7
383,2022.10.04,23:30,23:45,Arnulf,4,0,4
384,2022.10.04,23:45,00:00,Arnulf,1,0,1
385,2022.10.05,00:00,00:15,Arnulf,2,0,2
386,2022.10.05,00:15,00:30,Arnulf,1,0,1
387,2022.10.05,00:30,00:45,Arnulf,2,1,3
388,2022.10.05,00:45,01:00,Arnulf,0,0,0
389,2022.10.05,01:00,01:15,Arnulf,1,0,1
390,2022.10.05,01:15,01:30,Arnulf,0,0,0
391,2022.10.05,01:30,01:45,Arnulf,0,0,0
392,2022.10.05,01:45,02:00,Arnulf,0,0,0
393,2022.10.05,02:00,02:15,Arnulf,0,0,0
394,2022.10.05,02:15,02:30,Arnulf,0,0,0
395,2022.10.05,02:30,02:45,Arnulf,0,0,0
396,2022.10.05,02:45,03:00,Arnulf,1,0,1
397,2022.10.05,03:00,03:15,Arnulf,1,0,1
398,2022.10.05,03:15,03:30,Arnulf,0,0,0
399,2022.10.05,03:30,03:45,Arnulf,0,0,0
400,2022.10.05,03:45,04:00,Arnulf,0,0,0
401,2022.10.05,04:00,04:15,Arnulf,1,0,1
402,2022.10.05,04:15,04:30,Arnulf,0,1,1
403,2022.10.05,04:30,04:45,Arnulf,0,2,2
404,2022.10.05,04:45,05:00,Arnulf,0,0,0
405,2022.10.05,05:00,05:15,Arnulf,3,1,4
406,2022.10.05,05:15,05:30,Arnulf,3,0,3
407,2022.10.05,05:30,05:45,Arnulf,6,0,6
408,2022.10.05,05:45,06:00,Arnulf,4,1,5
409,2022.10.05,06:00,06:15,Arnulf,1,0,1
410,2022.10.05,06:15,06:30,Arnulf,9,0,9
411,2022.10.05,06:30,06:45,Arnulf,10,0,10
412,2022.10.05,06:45,07:00,Arnulf,11,0,11
413,2022.10.05,07:00,07:15,Arnulf,17,2,19
414,2022.10.05,07:15,07:30,Arnulf,38,0,38
415,2022.10.05,07:30,07:45,Arnulf,24,3,27
416,2022.10.05,07:45,08:00,Arnulf,45,3,48
417,2022.10.05,08:00,08:15,Arnulf,49,3,52
418,2022.10.05,08:15,08:30,Arnulf,58,0,58
419,2022.10.05,08:30,08:45,Arnulf,81,0,81
420,2022.10.05,08:45,09:00,Arnulf,51,3,54
421,2022.10.05,09:00,09:15,Arnulf,38,0,38
422,2022.10.05,09:15,09:30,Arnulf,31,1,32
423,2022.10.05,09:30,09:45,Arnulf,29,3,32
424,2022.10.05,09:45,10:00,Arnulf,30,2,32
425,2022.10.05,10:00,10:15,Arnulf,13,2,15
426,2022.10.05,10:15,10:30,Arnulf,19,0,19
427,2022.10.05,10:30,10:45,Arnulf,10,2,12
428,2022.10.05,10:45,11:00,Arnulf,23,1,24
429,2022.10.05,11:00,11:15,Arnulf,13,0,13
430,2022.10.05,11:15,11:30,Arnulf,14,0,14
431,2022.10.05,11:30,11:45,Arnulf,24,0,24
432,2022.10.05,11:45,12:00,Arnulf,18,0,18
433,2022.10.05,12:00,12:15,Arnulf,22,1,23
434,2022.10.05,12:15,12:30,Arnulf,36,0,36
435,2022.10.05,12:30,12:45,Arnulf,15,0,15
436,2022.10.05,12:45,13:00,Arnulf,20,5,25
437,2022.10.05,13:00,13:15,Arnulf,28,1,29
438,2022.10.05,13:15,13:30,Arnulf,26,1,27
439,2022.10.05,13:30,13:45,Arnulf,25,2,27
440,2022.10.05,13:45,14:00,Arnulf,21,0,21
441,2022.10.05,14:00,14:15,Arnulf,20,3,23
442,2022.10.05,14:15,14:30,Arnulf,16,1,17
443,2022.10.05,14:30,14:45,Arnulf,21,1,22
444,2022.10.05,14:45,15:00,Arnulf,17,2,19
445,2022.10.05,15:00,15:15,Arnulf,20,3,23
446,2022.10.05,15:15,15:30,Arnulf,14,0,14
447,2022.10.05,15:30,15:45,Arnulf,19,1,20
448,2022.10.05,15:45,16:00,Arnulf,17,1,18
449,2022.10.05,16:00,16:15,Arnulf,26,1,27
450,2022.10.05,16:15,16:30,Arnulf,31,1,32
451,2022.10.05,16:30,16:45,Arnulf,26,0,26
452,2022.10.05,16:45,17:00,Arnulf,43,1,44
453,2022.10.05,17:00,17:15,Arnulf,41,1,42
454,2022.10.05,17:15,17:30,Arnulf,33,3,36
455,2022.10.05,17:30,17:45,Arnulf,41,2,43
456,2022.10.05,17:45,18:00,Arnulf,53,0,53
457,2022.10.05,18:00,18:15,Arnulf,41,1,42
458,2022.10.05,18:15,18:30,Arnulf,45,2,47
459,2022.10.05,18:30,18:45,Arnulf,45,1,46
460,2022.10.05,18:45,19:00,Arnulf,38,4,42
461,2022.10.05,19:00,19:15,Arnulf,24,0,24
462,2022.10.05,19:15,19:30,Arnulf,29,1,30
463,2022.10.05,19:30,19:45,Arnulf,28,3,31
464,2022.10.05,19:45,20:00,Arnulf,14,1,15
465,2022.10.05,20:00,20:15,Arnulf,16,4,20
466,2022.10.05,20:15,20:30,Arnulf,19,2,21
467,2022.10.05,20:30,20:45,Arnulf,5,1,6
468,2022.10.05,20:45,21:00,Arnulf,6,0,6
469,2022.10.05,21:00,21:15,Arnulf,6,0,6
470,2022.10.05,21:15,21:30,Arnulf,4,0,4
471,2022.10.05,21:30,21:45,Arnulf,8,5,13
472,2022.10.05,21:45,22:00,Arnulf,8,2,10
473,2022.10.05,22:00,22:15,Arnulf,3,0,3
474,2022.10.05,22:15,22:30,Arnulf,7,0,7
475,2022.10.05,22:30,22:45,Arnulf,5,1,6
476,2022.10.05,22:45,23:00,Arnulf,8,1,9
477,2022.10.05,23:00,23:15,Arnulf,5,0,5
478,2022.10.05,23:15,23:30,Arnulf,3,0,3
479,2022.10.05,23:30,23:45,Arnulf,1,0,1
480,2022.10.05,23:45,00:00,Arnulf,1,0,1
481,2022.10.06,00:00,00:15,Arnulf,4,0,4
482,2022.10.06,00:15,00:30,Arnulf,4,0,4
483,2022.10.06,00:30,00:45,Arnulf,1,1,2
484,2022.10.06,00:45,01:00,Arnulf,2,1,3
485,2022.10.06,01:00,01:15,Arnulf,1,0,1
486,2022.10.06,01:15,01:30,Arnulf,1,0,1
487,2022.10.06,01:30,01:45,Arnulf,0,0,0
488,2022.10.06,01:45,02:00,Arnulf,0,0,0
489,2022.10.06,02:00,02:15,Arnulf,0,0,0
490,2022.10.06,02:15,02:30,Arnulf,0,0,0
491,2022.10.06,02:30,02:45,Arnulf,1,0,1
492,2022.10.06,02:45,03:00,Arnulf,0,0,0
493,2022.10.06,03:00,03:15,Arnulf,0,0,0
494,2022.10.06,03:15,03:30,Arnulf,2,0,2
495,2022.10.06,03:30,03:45,Arnulf,0,0,0
496,2022.10.06,03:45,04:00,Arnulf,0,0,0
497,2022.10.06,04:00,04:15,Arnulf,0,0,0
498,2022.10.06,04:15,04:30,Arnulf,2,0,2
499,2022.10.06,04:30,04:45,Arnulf,0,1,1
500,2022.10.06,04:45,05:00,Arnulf,3,0,3
501,2022.10.06,05:00,05:15,Arnulf,1,1,2
502,2022.10.06,05:15,05:30,Arnulf,4,0,4
503,2022.10.06,05:30,05:45,Arnulf,6,0,6
504,2022.10.06,05:45,06:00,Arnulf,5,1,6
505,2022.10.06,06:00,06:15,Arnulf,3,0,3
506,2022.10.06,06:15,06:30,Arnulf,6,0,6
507,2022.10.06,06:30,06:45,Arnulf,10,1,11
508,2022.10.06,06:45,07:00,Arnulf,7,1,8
509,2022.10.06,07:00,07:15,Arnulf,15,1,16
510,2022.10.06,07:15,07:30,Arnulf,21,2,23
511,2022.10.06,07:30,07:45,Arnulf,33,0,33
512,2022.10.06,07:45,08:00,Arnulf,43,2,45
513,2022.10.06,08:00,08:15,Arnulf,55,2,57
514,2022.10.06,08:15,08:30,Arnulf,57,0,57
515,2022.10.06,08:30,08:45,Arnulf,63,3,66
516,2022.10.06,08:45,09:00,Arnulf,48,1,49
517,2022.10.06,09:00,09:15,Arnulf,36,1,37
518,2022.10.06,09:15,09:30,Arnulf,38,1,39
519,2022.10.06,09:30,09:45,Arnulf,26,0,26
520,2022.10.06,09:45,10:00,Arnulf,12,1,13
521,2022.10.06,10:00,10:15,Arnulf,0,0,0
522,2022.10.06,10:15,10:30,Arnulf,8,2,10
523,2022.10.06,10:30,10:45,Arnulf,25,1,26
524,2022.10.06,10:45,11:00,Arnulf,9,0,9
525,2022.10.06,11:00,11:15,Arnulf,20,0,20
526,2022.10.06,11:15,11:30,Arnulf,16,1,17
527,2022.10.06,11:30,11:45,Arnulf,18,2,20
528,2022.10.06,11:45,12:00,Arnulf,11,0,11
529,2022.10.06,12:00,12:15,Arnulf,23,0,23
530,2022.10.06,12:15,12:30,Arnulf,21,1,22
531,2022.10.06,12:30,12:45,Arnulf,16,0,16
532,2022.10.06,12:45,13:00,Arnulf,30,0,30
533,2022.10.06,13:00,13:15,Arnulf,25,4,29
534,2022.10.06,13:15,13:30,Arnulf,22,2,24
535,2022.10.06,13:30,13:45,Arnulf,25,1,26
536,2022.10.06,13:45,14:00,Arnulf,15,5,20
537,2022.10.06,14:00,14:15,Arnulf,22,0,22
538,2022.10.06,14:15,14:30,Arnulf,11,0,11
539,2022.10.06,14:30,14:45,Arnulf,13,4,17
540,2022.10.06,14:45,15:00,Arnulf,22,0,22
541,2022.10.06,15:00,15:15,Arnulf,24,1,25
542,2022.10.06,15:15,15:30,Arnulf,20,2,22
543,2022.10.06,15:30,15:45,Arnulf,30,1,31
544,2022.10.06,15:45,16:00,Arnulf,22,4,26
545,2022.10.06,16:00,16:15,Arnulf,37,0,37
546,2022.10.06,16:15,16:30,Arnulf,18,0,18
547,2022.10.06,16:30,16:45,Arnulf,23,3,26
548,2022.10.06,16:45,17:00,Arnulf,30,2,32
549,2022.10.06,17:00,17:15,Arnulf,43,2,45
550,2022.10.06,17:15,17:30,Arnulf,34,6,40
551,2022.10.06,17:30,17:45,Arnulf,46,4,50
552,2022.10.06,17:45,18:00,Arnulf,35,3,38
553,2022.10.06,18:00,18:15,Arnulf,38,2,40
554,2022.10.06,18:15,18:30,Arnulf,47,3,50
555,2022.10.06,18:30,18:45,Arnulf,46,3,49
556,2022.10.06,18:45,19:00,Arnulf,37,2,39
557,2022.10.06,19:00,19:15,Arnulf,23,0,23
558,2022.10.06,19:15,19:30,Arnulf,30,2,32
559,2022.10.06,19:30,19:45,Arnulf,27,0,27
560,2022.10.06,19:45,20:00,Arnulf,16,1,17
561,2022.10.06,20:00,20:15,Arnulf,19,5,24
562,2022.10.06,20:15,20:30,Arnulf,13,0,13
563,2022.10.06,20:30,20:45,Arnulf,12,0,12
564,2022.10.06,20:45,21:00,Arnulf,11,0,11
565,2022.10.06,21:00,21:15,Arnulf,13,0,13
566,2022.10.06,21:15,21:30,Arnulf,11,1,12
567,2022.10.06,21:30,21:45,Arnulf,10,0,10
568,2022.10.06,21:45,22:00,Arnulf,8,0,8
569,2022.10.06,22:00,22:15,Arnulf,10,1,11
570,2022.10.06,22:15,22:30,Arnulf,5,1,6
571,2022.10.06,22:30,22:45,Arnulf,15,0,15
572,2022.10.06,22:45,23:00,Arnulf,9,2,11
573,2022.10.06,23:00,23:15,Arnulf,5,0,5
574,2022.10.06,23:15,23:30,Arnulf,6,0,6
575,2022.10.06,23:30,23:45,Arnulf,7,0,7
576,2022.10.06,23:45,00:00,Arnulf,2,0,2
577,2022.10.07,00:00,00:15,Arnulf,4,0,4
578,2022.10.07,00:15,00:30,Arnulf,0,0,0
579,2022.10.07,00:30,00:45,Arnulf,1,0,1
580,2022.10.07,00:45,01:00,Arnulf,1,0,1
581,2022.10.07,01:00,01:15,Arnulf,2,0,2
582,2022.10.07,01:15,01:30,Arnulf,7,0,7
583,2022.10.07,01:30,01:45,Arnulf,0,1,1
584,2022.10.07,01:45,02:00,Arnulf,0,1,1
585,2022.10.07,02:00,02:15,Arnulf,0,0,0
586,2022.10.07,02:15,02:30,Arnulf,0,0,0
587,2022.10.07,02:30,02:45,Arnulf,2,0,2
588,2022.10.07,02:45,03:00,Arnulf,3,0,3